TimeCST,TemperatureF,Dew PointF,Humidity,Sea Level PressureIn,VisibilityMPH,Wind Direction,Wind SpeedMPH,Gust SpeedMPH,PrecipitationIn,Events,Conditions,WindDirDegrees,DateUTC
12:15 AM,11.1,2.1,67,30.49,10.0,NNE,10.4,18.4,N/A,,Clear,20,2013-01-24 06:15:00
12:35 AM,10.2,0.5,65,30.49,10.0,NNE,10.4,-,N/A,,Clear,20,2013-01-24 06:35:00
12:55 AM,9.1,0.1,67,30.50,10.0,NNE,11.5,16.1,N/A,,Clear,30,2013-01-24 06:55:00
1:15 AM,8.1,-1.7,65,30.51,10.0,NNE,10.4,17.3,N/A,,Clear,20,2013-01-24 07:15:00
1:35 AM,7.5,-1.8,66,30.51,10.0,NNE,5.8,-,N/A,,Clear,20,2013-01-24 07:35:00
1:55 AM,6.4,-1.8,69,30.53,10.0,NNE,6.9,-,N/A,,Clear,20,2013-01-24 07:55:00
2:15 AM,5.7,-3.1,67,30.53,10.0,NNE,6.9,-,N/A,,Clear,30,2013-01-24 08:15:00
2:35 AM,5.0,-4.0,66,30.53,10.0,NE,10.4,-,N/A,,Clear,40,2013-01-24 08:35:00
2:55 AM,4.3,-4.9,66,30.54,10.0,NNE,6.9,-,N/A,,Clear,30,2013-01-24 08:55:00
3:15 AM,3.9,-4.9,67,30.53,10.0,NNE,9.2,-,N/A,,Clear,30,2013-01-24 09:15:00
3:35 AM,3.7,-4.9,67,30.54,10.0,NNE,5.8,-,N/A,,Clear,20,2013-01-24 09:35:00
3:55 AM,3.6,-4.9,68,30.53,10.0,NNE,6.9,-,N/A,,Clear,30,2013-01-24 09:55:00
4:15 AM,3.2,-4.5,70,30.53,10.0,NNE,4.6,-,N/A,,Clear,30,2013-01-24 10:15:00
4:35 AM,3.0,-4.5,71,30.51,10.0,NE,9.2,-,N/A,,Clear,40,2013-01-24 10:35:00
4:55 AM,3.0,-5.1,69,30.51,10.0,NE,9.2,-,N/A,,Clear,50,2013-01-24 10:55:00
5:15 AM,2.8,-5.3,69,30.50,10.0,NE,10.4,-,N/A,,Clear,40,2013-01-24 11:15:00
5:35 AM,2.8,-5.4,68,30.50,10.0,NE,10.4,-,N/A,,Clear,40,2013-01-24 11:35:00
5:55 AM,2.7,-5.3,70,30.50,10.0,NE,6.9,-,N/A,,Clear,40,2013-01-24 11:55:00
6:15 AM,2.5,-5.4,70,30.50,10.0,ENE,4.6,-,N/A,,Clear,60,2013-01-24 12:15:00
6:35 AM,2.7,-5.3,70,30.50,10.0,ENE,4.6,-,N/A,,Clear,60,2013-01-24 12:35:00
6:55 AM,2.7,-5.1,70,30.51,10.0,ENE,5.8,-,N/A,,Clear,70,2013-01-24 12:55:00
7:15 AM,2.5,-5.1,71,30.50,10.0,ENE,8.1,-,N/A,,Clear,60,2013-01-24 13:15:00
7:35 AM,2.7,-4.9,71,30.50,10.0,ENE,8.1,-,N/A,,Clear,60,2013-01-24 13:35:00
7:55 AM,2.8,-4.5,71,30.51,10.0,ENE,5.8,-,N/A,,Clear,70,2013-01-24 13:55:00
8:15 AM,3.2,-4.2,71,30.52,10.0,ENE,8.1,-,N/A,,Clear,60,2013-01-24 14:15:00
8:35 AM,3.9,-4.0,70,30.51,10.0,East,8.1,-,N/A,,Clear,80,2013-01-24 14:35:00
8:55 AM,4.8,-3.6,68,30.51,10.0,East,10.4,-,N/A,,Clear,80,2013-01-24 14:55:00
9:15 AM,5.9,-3.3,66,30.50,10.0,East,12.7,-,N/A,,Clear,90,2013-01-24 15:15:00
9:35 AM,7.3,-2.7,63,30.50,10.0,East,10.4,-,N/A,,Clear,100,2013-01-24 15:35:00
9:55 AM,7.7,-3.6,60,30.51,10.0,East,11.5,16.1,N/A,,Clear,90,2013-01-24 15:55:00
10:15 AM,8.2,-3.1,60,30.50,10.0,East,9.2,-,N/A,,Clear,100,2013-01-24 16:15:00
10:35 AM,9.1,-2.6,59,30.50,10.0,East,8.1,-,N/A,,Clear,100,2013-01-24 16:35:00
10:55 AM,10.2,-1.8,58,30.48,10.0,ESE,10.4,-,N/A,,Clear,110,2013-01-24 16:55:00
11:15 AM,10.4,-2.6,56,30.48,10.0,East,8.1,-,N/A,,Clear,100,2013-01-24 17:15:00
11:35 AM,12.2,-1.8,53,30.47,10.0,SE,6.9,-,N/A,,Clear,130,2013-01-24 17:35:00
11:55 AM,12.0,-2.0,53,30.45,10.0,SE,5.8,-,N/A,,Clear,130,2013-01-24 17:55:00
12:15 PM,12.9,-1.8,52,30.42,10.0,SE,9.2,-,N/A,,Clear,130,2013-01-24 18:15:00
12:35 PM,14.2,-1.7,50,30.39,10.0,ESE,9.2,-,N/A,,Clear,110,2013-01-24 18:35:00
12:55 PM,15.1,-1.8,47,30.37,10.0,SE,8.1,-,N/A,,Clear,130,2013-01-24 18:55:00
1:15 PM,15.1,-2.6,46,30.37,10.0,ESE,8.1,-,N/A,,Clear,110,2013-01-24 19:15:00
1:35 PM,16.3,-2.6,43,30.35,10.0,SE,9.2,-,N/A,,Clear,130,2013-01-24 19:35:00
1:55 PM,17.4,-2.2,42,30.33,10.0,East,8.1,-,N/A,,Clear,100,2013-01-24 19:55:00
2:15 PM,17.6,-1.8,42,30.33,10.0,ESE,5.8,-,N/A,,Clear,120,2013-01-24 20:15:00
2:35 PM,17.4,-1.7,43,30.30,10.0,ESE,10.4,-,N/A,,Clear,120,2013-01-24 20:35:00
2:55 PM,18.0,-1.3,43,30.28,10.0,ESE,10.4,-,N/A,,Clear,120,2013-01-24 20:55:00
3:15 PM,18.3,-1.7,42,30.27,10.0,SE,9.2,-,N/A,,Clear,130,2013-01-24 21:15:00
3:35 PM,18.5,-1.1,42,30.26,10.0,ESE,8.1,-,N/A,,Clear,120,2013-01-24 21:35:00
3:55 PM,18.3,-0.9,43,30.26,10.0,ESE,9.2,-,N/A,,Clear,120,2013-01-24 21:55:00
4:15 PM,18.5,-0.4,44,30.25,10.0,SE,8.1,-,N/A,,Clear,130,2013-01-24 22:15:00
4:35 PM,18.5,-0.4,44,30.25,10.0,SE,10.4,-,N/A,,Mostly Cloudy,140,2013-01-24 22:35:00
4:55 PM,18.9,-0.4,43,30.24,10.0,SE,10.4,-,N/A,,Overcast,130,2013-01-24 22:55:00
5:15 PM,18.5,-0.4,44,30.23,10.0,SE,10.4,-,N/A,,Overcast,130,2013-01-24 23:15:00
5:35 PM,18.7,0.1,44,30.21,10.0,SE,8.1,-,N/A,,Overcast,130,2013-01-24 23:35:00
5:55 PM,18.5,0.3,45,30.21,10.0,ESE,9.2,-,N/A,,Mostly Cloudy,120,2013-01-24 23:55:00
6:15 PM,18.1,0.9,47,30.19,10.0,ESE,8.1,-,N/A,,Scattered Clouds,120,2013-01-25 00:15:00
6:35 PM,18.5,1.0,47,30.20,10.0,SE,6.9,-,N/A,,Mostly Cloudy,130,2013-01-25 00:35:00
6:55 PM,18.1,1.0,47,30.18,10.0,SE,10.4,-,N/A,,Mostly Cloudy,130,2013-01-25 00:55:00
7:15 PM,18.9,1.6,47,30.21,10.0,SE,5.8,-,N/A,,Overcast,140,2013-01-25 01:15:00
7:35 PM,19.0,1.8,47,30.20,10.0,SSE,5.8,-,N/A,,Overcast,150,2013-01-25 01:35:00
7:55 PM,19.4,2.1,47,30.20,10.0,SE,8.1,-,N/A,,Overcast,140,2013-01-25 01:55:00
8:15 PM,19.4,2.3,48,30.18,10.0,SE,12.7,17.3,N/A,,Overcast,140,2013-01-25 02:15:00
8:35 PM,19.6,2.7,48,30.18,10.0,SE,9.2,16.1,N/A,,Overcast,140,2013-01-25 02:35:00
8:55 PM,19.9,3.0,48,30.17,10.0,SSE,11.5,-,N/A,,Overcast,150,2013-01-25 02:55:00
9:15 PM,19.9,3.2,48,30.18,10.0,SSE,9.2,-,N/A,,Overcast,150,2013-01-25 03:15:00
9:35 PM,20.3,3.7,49,30.18,10.0,SSE,10.4,-,N/A,,Overcast,150,2013-01-25 03:35:00
9:55 PM,20.3,3.7,49,30.21,10.0,SE,5.8,-,N/A,,Overcast,140,2013-01-25 03:55:00
10:15 PM,20.3,4.1,50,30.21,10.0,SSE,5.8,-,N/A,,Overcast,160,2013-01-25 04:15:00
10:35 PM,20.3,4.3,50,30.20,10.0,SE,4.6,-,N/A,,Overcast,140,2013-01-25 04:35:00
10:55 PM,20.5,5.0,51,30.19,10.0,SSE,4.6,-,N/A,,Overcast,150,2013-01-25 04:55:00
11:15 PM,20.7,5.0,51,30.18,10.0,SSE,8.1,-,N/A,,Overcast,150,2013-01-25 05:15:00
11:35 PM,20.7,5.4,52,30.18,10.0,SSE,3.5,-,N/A,,Overcast,150,2013-01-25 05:35:00
11:55 PM,20.8,5.5,52,30.19,10.0,SSE,3.5,-,N/A,,Overcast,150,2013-01-25 05:55:00